Location: *
(45.9500°N, 9.0833°E)
Time: 10:33:48
(UTC+00:00)

Explorer 11/Cluster Stage 4 - All Passes

Search period start: 15 June 2021 00:00
Search period end: 25 June 2021 00:00
Orbit: 467 x 1257 km, 28.8° (Epoch: 14 June)

Date Brightness Start Highest point End Pass type
(mag) Time Alt. Az. Time Alt. Az. Time Alt. Az.
15 Jun - 05:44:26 10° SSW 05:47:35 14° S 05:50:30 10° SE daylight
15 Jun - 07:32:28 10° SW 07:35:11 13° S 07:37:40 10° SSE daylight
16 Jun - 05:32:30 10° SSW 05:36:20 15° S 05:39:49 10° SE daylight
16 Jun - 07:20:54 10° SW 07:23:58 14° S 07:26:47 10° SSE daylight
17 Jun - 03:35:02 10° S 03:37:14 11° SSE 03:39:22 10° SE daylight
17 Jun - 05:20:43 10° SSW 05:25:04 17° S 05:29:01 10° SE daylight
17 Jun - 07:09:22 10° SW 07:12:44 14° SSW 07:15:47 10° SSE daylight
18 Jun - 03:22:33 10° S 03:25:54 13° SSE 03:29:06 10° SE daylight
18 Jun - 05:08:59 10° SW 05:13:46 18° S 05:18:07 10° SE daylight
18 Jun - 06:57:54 10° SW 07:01:28 15° SSW 07:04:45 10° SSE daylight
19 Jun - 03:10:27 10° SSW 03:14:32 15° SSE 03:18:27 10° SE daylight
19 Jun - 04:57:20 10° SW 05:02:28 19° S 05:07:08 10° SE daylight
19 Jun - 06:46:27 10° SW 06:50:12 15° SSW 06:53:36 10° SSE daylight
20 Jun - 02:58:30 10° SSW 03:03:10 16° SSE 03:07:37 10° SE visible
20 Jun - 04:45:44 10° SW 04:51:08 20° S 04:56:04 10° SE daylight
20 Jun - 06:35:03 10° SW 06:38:52 15° SSW 06:42:24 10° SSE daylight
21 Jun - 02:46:43 10° SSW 02:51:47 18° SSE 02:56:40 10° SE visible
21 Jun - 04:34:11 10° SW 04:39:46 21° S 04:44:56 10° SE daylight
21 Jun - 06:23:42 10° SW 06:27:32 15° SSW 06:31:06 10° SSE daylight
22 Jun - 02:35:02 10° SSW 02:40:23 19° SSE 02:45:36 10° SE visible
22 Jun - 04:22:41 10° SW 04:28:24 21° S 04:33:45 10° SE daylight
22 Jun - 06:12:25 10° SW 06:16:11 14° SSW 06:19:43 10° S daylight
23 Jun - 00:38:59 10° S 00:41:09 11° SSE 00:43:20 10° SE visible
23 Jun - 02:23:25 10° SSW 02:28:59 20° S 02:34:27 10° SE visible
23 Jun - 04:11:14 10° SW 04:17:01 21° S 04:22:30 10° SE daylight
23 Jun - 06:01:11 10° SW 06:04:48 14° SSW 06:08:14 10° S daylight
24 Jun - 00:26:46 10° S 00:29:43 12° SSE 00:32:44 10° SE visible
24 Jun - 02:11:54 10° SW 02:17:34 21° S 02:23:14 10° SE visible
24 Jun - 03:59:50 10° SW 04:05:37 21° S 04:11:11 10° SE daylight
24 Jun - 05:50:04 10° SW 05:53:25 13° SSW 05:56:36 10° S daylight
